To NAV CANADA Home Page Login to a new session Search on AWWS site Feedback and Comments Disclaimer Vers la page française équivalente Tips FAQ What's new on the site To the Forecasts and Observations / NOTAM section To "File a Flight Plan" website Publications and other links Update of the User's profile FIC Telephone Numbers My Weather Data Folder Route Weather Data Regional Weather Data Local Weather Data To the Forecasts and Observations / NOTAM section
Request Generated 08/24/2016 at 21:23:43 UTC . Weather information available at that time is displayed.

METAR/TAF

WHALE COVE/NU    

METAR CYXN 242100Z 01010KT 15SM FEW240 16/05 A2987 RMK CI1 SLP117
DENSITY ALT 100FT=
METAR CYXN 242000Z 36012KT 15SM FEW240 15/06 A2986 RMK CI2 SLP115
DENSITY ALT 100FT=
METAR CYXN 241900Z 36012KT 15SM SCT240 14/07 A2987 RMK CI3 CC ASOCTD
SLP118=

CYXN - No TAF is issued for this station

Your time UTC time
Weather data provided by Environment Canada and NAV CANADA